Location: Newark
(42.7133°N, 87.7910°W)
Time: 03:25:28
(UTC+00:00)

Vanguard 1 Rocket - Pass Details

Date: 25 September 2019
Orbit: 650 x 4226 km, 34.3° (Epoch: 20 October)

Event Time Altitude Azimuth Distance (km) Brightness Sun altitude
Rises 00:30:13 0° 257° (WSW) 8,347 13.8 -9.1°
Reaches altitude 10° 00:36:29 10° 255° (WSW) 7,069 13.1 -10.2°
Maximum altitude 00:57:47 63° 182° (S) 2,858 9.8 -14.1°
Enters shadow 01:06:57 20° 109° (ESE) 3,521 9.7 -15.7°
